Trinidad, CO

1:34 AM MDT on April 26, 2017 (GMT -0600)
Stokes

Weather History for KTAD - May, 2013

Change the Weather History Date:

Monday, May 20, 2013

  Actual Average Record
Temperature  
Mean Temperature 56 °F 60 °F  
Max Temperature 71 °F 76 °F 91 °F (2005)
Min Temperature 40 °F 45 °F 31 °F (1960)
Degree Days  
Heating Degree Days 9 5  
Month to date heating degree days 210 158  
Since 1 July heating degree days 5418 5448  
Cooling Degree Days 0 1  
Month to date cooling degree days 20 9  
Year to date cooling degree days 24 11  
Growing Degree Days 4 (Base 50)    
Moisture  
Dew Point 29 °F    
Average Humidity 53    
Maximum Humidity 86    
Minimum Humidity 19    
Precipitation  
Precipitation 0.02 in 0.06 in 1.79 in (1977)
Month to date precipitation 0.51  
Year to date precipitation 1.94  
Sea Level Pressure  
Sea Level Pressure 29.79 in    
Wind  
Wind Speed 10 mph (NW)    
Max Wind Speed 23 mph    
Max Gust Speed 31 mph    
Visibility 10 miles    
Events Rain    
T = Trace of Precipitation, MM = Missing Value Source: NWS Daily Summary

Daily Weather History Graph

Daily Weather History Graph

Search for Another Location

Airport or City:

Trip Planner

Search our weather history database for the weather conditions in past years. The results will help you decide how hot, cold, wet, or windy it might be!

Date:

Astronomy

May. 20, 2013 Rise Set
Actual Time 5:44 AM MDT 8:03 PM MDT
Civil Twilight 5:15 AM MDT 8:33 PM MDT
Nautical Twilight 4:38 AM MDT 9:09 PM MDT
Astronomical Twilight 3:59 AM MDT 9:49 PM MDT
Moon 3:19 PM MDT (5/20) 2:34 AM MDT (5/20)
Length of Visible Light 15h 18m
Length of Day
14h 18m
Waxing Gibbous, 75% of the Moon is Illuminated
May 20
Waxing Gibbous
May 24
Full
May 31
Last Quarter
Jun 8
New
Jun 16
First Quarter

Hourly Weather History & Observations

Time (MDT) Temp. Windchill Dew Point Humidity Pressure Visibility Wind Dir Wind Speed Gust Speed Precip Events Conditions
12:54 AM 48.0 °F - 23.0 °F 37% 29.74 in 10.0 mi West 6.9 mph - N/A   Clear
2:54 AM 42.1 °F 36.6 °F 24.1 °F 49% 29.76 in 10.0 mi WNW 9.2 mph - N/A   Clear
3:54 AM 41.0 °F 34.7 °F 23.0 °F 49% 29.77 in 10.0 mi SW 10.4 mph - N/A   Clear
4:54 AM 41.0 °F 34.7 °F 23.0 °F 49% 29.76 in 10.0 mi WSW 10.4 mph - N/A   Clear
5:54 AM 41.0 °F 35.2 °F 21.9 °F 47% 29.77 in 10.0 mi West 9.2 mph - N/A   Clear
6:54 AM 46.0 °F 40.6 °F 23.0 °F 40% 29.77 in 10.0 mi WSW 11.5 mph - N/A   Clear
9:54 AM 64.0 °F - 25.0 °F 23% 29.74 in 10.0 mi North 9.2 mph - N/A   Partly Cloudy
10:54 AM 66.0 °F - 28.9 °F 25% 29.74 in 10.0 mi NNE 15.0 mph 20.7 mph N/A   Clear
11:54 AM 66.0 °F - 27.0 °F 23% 29.75 in 10.0 mi Variable 5.8 mph - N/A   Partly Cloudy
12:54 PM 68.0 °F - 28.0 °F 22% 29.74 in 10.0 mi ESE 5.8 mph - N/A   Partly Cloudy
1:54 PM 66.9 °F - 27.0 °F 22% 29.77 in 10.0 mi NW 8.1 mph - N/A   Scattered Clouds
2:54 PM 68.0 °F - 28.0 °F 22% 29.76 in 10.0 mi North 11.5 mph - 0.00 in   Partly Cloudy
3:54 PM 66.9 °F - 23.0 °F 19% 29.76 in 10.0 mi WNW 8.1 mph - 0.00 in   Scattered Clouds
4:54 PM 68.0 °F - 30.0 °F 24% 29.75 in 10.0 mi North 21.9 mph 27.6 mph N/A   Partly Cloudy
5:54 PM 66.9 °F - 25.0 °F 21% 29.78 in 10.0 mi NNW 12.7 mph - N/A   Partly Cloudy
6:54 PM 60.1 °F - 33.1 °F 36% 29.84 in 10.0 mi NNW 10.4 mph 23.0 mph N/A   Overcast
8:54 PM 57.0 °F - 34.0 °F 42% 29.85 in 10.0 mi NW 9.2 mph 18.4 mph N/A   Mostly Cloudy
9:54 PM 53.1 °F - 42.1 °F 66% 29.89 in 10.0 mi NNE 17.3 mph 24.2 mph 0.01 in Rain Light Rain
10:54 PM 48.0 °F - 43.0 °F 83% 29.91 in 10.0 mi NE 11.5 mph - 0.01 in   Clear
11:54 PM 46.0 °F 44.8 °F 42.1 °F 86% 29.90 in 10.0 mi SW 3.5 mph - N/A   Partly Cloudy